Change the Weather History Date:

Monday, December 30, 2013

  Actual Average Record
Temperature  
Mean Temperature 39 °F -  
Max Temperature 46 °F 44 °F 66 °F (1996)
Min Temperature 32 °F 26 °F 15 °F (2000)
Degree Days  
Heating Degree Days 26    
Moisture  
Dew Point 32 °F    
Average Humidity 88    
Maximum Humidity 100    
Minimum Humidity 56    
Precipitation  
Precipitation 0.00 in - - ()
Sea Level Pressure  
Sea Level Pressure 29.96 in    
Wind  
Wind Speed 2 mph (NNW)    
Max Wind Speed 12 mph    
Max Gust Speed 20 mph    
Visibility 8 miles    
Events      
Averages and records for this station are not official NWS values.
T = Trace of Precipitation, MM = Missing Value Source: NWS Daily Summary

Daily Weather History Graph

Daily Weather History Graph

Search for Another Location

Airport or City:

Trip Planner

Search our weather history database for the weather conditions in past years. The results will help you decide how hot, cold, wet, or windy it might be!

Date:

Astronomy

Dec. 30, 2013 Rise Set
Actual Time 7:26 AM EST 4:56 PM EST
Civil Twilight 6:56 AM EST 5:26 PM EST
Nautical Twilight 6:23 AM EST 5:59 PM EST
Astronomical Twilight 5:51 AM EST 6:31 PM EST
Moon 5:14 AM EST (12/30) 3:27 PM EST (12/30)
Length of Visible Light 10h 29m
Length of Day
9h 29m
Waning Crescent, 5% of the Moon is Illuminated
Dec 30
Waning Crescent
Jan 1
New
Jan 7
First Quarter
Jan 15
Full
Jan 24
Last Quarter

Hourly Weather History & Observations

Time (EST) Temp. Windchill Dew Point Humidity Pressure Visibility Wind Dir Wind Speed Gust Speed Precip Events Conditions
12:23 AM 35.6 °F - 35.6 °F 100% 29.85 in 8.0 mi Calm Calm - N/A   Clear
12:33 AM 35.6 °F - 35.6 °F 100% 29.84 in 10.0 mi North 1.2 mph - N/A   Clear
12:58 AM 34.7 °F - 34.3 °F 99% 29.86 in 10.0 mi Calm Calm - N/A   Clear
1:03 AM 35.6 °F - 33.8 °F 93% 29.85 in 8.0 mi WNW 2.3 mph - N/A   Clear
1:08 AM 35.6 °F - 33.8 °F 93% 29.85 in 3.0 mi NW 2.3 mph - N/A   Clear
1:13 AM 33.8 °F - 33.8 °F 100% 29.85 in 2.0 mi Calm Calm - N/A   Clear
1:23 AM 33.8 °F - 33.8 °F 100% 29.85 in 1.8 mi NNW 1.2 mph - N/A   Clear
1:28 AM 33.8 °F - 33.8 °F 100% 29.86 in 1.2 mi Calm Calm - N/A   Clear
1:33 AM 33.8 °F - 32.0 °F 93% 29.86 in 1.0 mi NW 2.3 mph - N/A   Clear
1:38 AM 33.8 °F - 32.0 °F 93% 29.86 in 1.5 mi Calm Calm - N/A   Clear
1:43 AM 33.8 °F - 32.0 °F 93% 29.86 in 2.0 mi Calm Calm - N/A   Clear
1:48 AM 32.0 °F - 32.0 °F 100% 29.86 in 3.0 mi Calm Calm - N/A   Clear
1:53 AM 32.0 °F - 32.0 °F 100% 29.86 in 2.0 mi Calm Calm - N/A   Clear
1:58 AM 32.0 °F - 32.0 °F 100% 29.88 in 2.5 mi Calm Calm - N/A   Clear
2:03 AM 32.0 °F - 32.0 °F 100% 29.86 in 8.0 mi Calm Calm - N/A   Clear
2:08 AM 32.0 °F - 32.0 °F 100% 29.87 in 9.0 mi NW 2.3 mph - N/A   Clear
2:13 AM 32.0 °F - 32.0 °F 100% 29.87 in 4.0 mi WNW 1.2 mph - N/A   Clear
2:18 AM 32.0 °F - 32.0 °F 100% 29.88 in 1.2 mi Variable 2.3 mph - N/A   Clear
2:23 AM 32.0 °F - 32.0 °F 100% 29.87 in 1.2 mi Calm Calm - N/A   Clear
2:28 AM 32.0 °F - 32.0 °F 100% 29.88 in 2.5 mi Calm Calm - N/A   Clear
2:33 AM 32.0 °F - 32.0 °F 100% 29.87 in 10.0 mi NW 1.2 mph - N/A   Clear
2:58 AM 32.4 °F - 32.2 °F 99% 29.90 in 10.0 mi SE 2.3 mph - N/A   Clear
3:08 AM 32.0 °F - 32.0 °F 100% 29.89 in 9.0 mi Calm Calm - N/A   Partly Cloudy
3:23 AM 32.0 °F - 32.0 °F 100% 29.90 in 10.0 mi Calm Calm - N/A   Mostly Cloudy
3:58 AM 33.6 °F - 33.3 °F 99% 29.91 in 10.0 mi NW 1.2 mph - N/A   Overcast
4:23 AM 33.8 °F - 33.8 °F 100% 29.91 in 9.0 mi Calm Calm - N/A   Overcast
4:33 AM 33.8 °F - 33.8 °F 100% 29.91 in 10.0 mi Calm Calm - N/A   Overcast
4:58 AM 34.2 °F - 34.0 °F 99% 29.94 in 10.0 mi Calm Calm - N/A   Overcast
5:13 AM 33.8 °F - 33.8 °F 100% 29.92 in 8.0 mi Calm Calm - N/A   Mostly Cloudy
5:23 AM 33.8 °F - 33.8 °F 100% 29.93 in 10.0 mi Calm Calm - N/A   Mostly Cloudy
5:58 AM 35.2 °F - 35.1 °F 99% 29.94 in 10.0 mi Calm Calm - N/A   Overcast
6:13 AM 35.6 °F - 35.6 °F 100% 29.94 in 9.0 mi NNW 1.2 mph - N/A   Overcast
6:33 AM 35.6 °F - 33.8 °F 93% 29.94 in 5.0 mi Variable 1.2 mph - N/A   Partly Cloudy
6:38 AM 33.8 °F - 33.8 °F 100% 29.94 in 5.0 mi Variable 1.2 mph - N/A   Partly Cloudy
6:53 AM 35.6 °F - 33.8 °F 93% 29.95 in 10.0 mi Calm Calm - N/A   Clear
6:58 AM 34.7 °F - 34.5 °F 99% 29.97 in 10.0 mi Calm Calm - N/A   Clear
7:08 AM 33.8 °F - 33.8 °F 100% 29.96 in 9.0 mi Calm Calm - N/A   Partly Cloudy
7:23 AM 33.8 °F - 33.8 °F 100% 29.96 in 10.0 mi Calm Calm - N/A   Mostly Cloudy
7:58 AM 35.4 °F - 35.1 °F 99% 29.99 in 10.0 mi WNW 2.3 mph - N/A   Overcast
8:58 AM 40.5 °F - 40.3 °F 99% 30.03 in 10.0 mi West 2.3 mph - N/A   Overcast
9:58 AM 44.8 °F 39.9 °F 37.4 °F 75% 30.05 in 10.0 mi NW 9.2 mph - N/A   Overcast
10:58 AM 46.0 °F 40.6 °F 34.0 °F 63% 30.07 in 10.0 mi NW 11.5 mph - N/A   Overcast
11:58 AM 45.7 °F 40.2 °F 32.9 °F 61% 30.07 in 10.0 mi NW 11.5 mph 19.6 mph N/A   Overcast
12:58 PM 44.2 °F 40.3 °F 31.1 °F 60% 30.07 in 10.0 mi North 6.9 mph - N/A   Partly Cloudy
1:58 PM 43.5 °F 37.9 °F 29.1 °F 57% 30.09 in 10.0 mi NNW 10.4 mph - N/A   Partly Cloudy
2:58 PM 41.9 °F 36.3 °F 27.1 °F 56% 30.12 in 10.0 mi NNW 9.2 mph 17.3 mph N/A   Partly Cloudy
3:58 PM 40.8 °F 35.6 °F 26.8 °F 57% 30.14 in 10.0 mi North 8.1 mph - N/A   Mostly Cloudy
4:58 PM 39.0 °F 34.8 °F 25.2 °F 58% 30.14 in 10.0 mi NNW 5.8 mph - N/A   Clear
5:58 PM 37.9 °F 32.7 °F 24.3 °F 58% 30.15 in 10.0 mi Variable 6.9 mph - N/A   Clear
6:58 PM 36.5 °F 33.9 °F 23.9 °F 60% 30.17 in 10.0 mi NNE 3.5 mph - N/A   Clear
7:58 PM 36.7 °F 34.1 °F 22.8 °F 57% 30.19 in 10.0 mi NNW 3.5 mph - N/A   Overcast
8:58 PM 36.3 °F 32.5 °F 23.4 °F 59% 30.21 in 10.0 mi North 4.6 mph - N/A   Overcast
9:58 PM 35.4 °F 31.5 °F 22.1 °F 58% 30.20 in 10.0 mi Variable 4.6 mph - N/A   Overcast
10:58 PM 35.2 °F 32.4 °F 21.6 °F 58% 30.21 in 10.0 mi Variable 3.5 mph - N/A   Overcast
11:58 PM 34.3 °F 31.4 °F 20.1 °F 56% 30.20 in 10.0 mi North 3.5 mph - N/A   Overcast